Carlsbad, NM

5:52 PM MDT on May 27, 2017 (GMT -0600)
Cavern City

Weather History for KCNM - October, 2013

Change the Weather History Date:

Sunday, October 6, 2013

  Actual Average Record
Temperature  
Mean Temperature 59 °F -  
Max Temperature 77 °F 79 °F 96 °F (1956)
Min Temperature 41 °F 53 °F 41 °F (2013)
Degree Days  
Heating Degree Days 6    
Growing Degree Days 9 (Base 50)    
Moisture  
Dew Point 27 °F    
Average Humidity 36    
Maximum Humidity 65    
Minimum Humidity 11    
Precipitation  
Precipitation 0.00 in - - ()
Sea Level Pressure  
Sea Level Pressure 30.14 in    
Wind  
Wind Speed 6 mph (SW)    
Max Wind Speed 10 mph    
Max Gust Speed -    
Visibility 10 miles    
Events      
Averages and records for this station are not official NWS values.
T = Trace of Precipitation, MM = Missing Value Source: NWS Daily Summary

Daily Weather History Graph

Daily Weather History Graph

Search for Another Location

Airport or City:

Trip Planner

Search our weather history database for the weather conditions in past years. The results will help you decide how hot, cold, wet, or windy it might be!

Date:

Astronomy

Oct. 06, 2013 Rise Set
Actual Time 6:54 AM MDT 6:34 PM MDT
Civil Twilight 6:30 AM MDT 6:59 PM MDT
Nautical Twilight 6:01 AM MDT 7:27 PM MDT
Astronomical Twilight 5:33 AM MDT 7:56 PM MDT
Moon 8:33 AM MDT (10/6) 7:45 PM MDT (10/6)
Length of Visible Light 12h 29m
Length of Day
11h 40m
Waxing Crescent, 4% of the Moon is Illuminated
Oct 6
Waxing Crescent
Oct 11
First Quarter
Oct 18
Full
Oct 26
Last Quarter
Nov 3
New

Hourly Weather History & Observations

Time (MDT) Temp. Windchill Dew Point Humidity Pressure Visibility Wind Dir Wind Speed Gust Speed Precip Events Conditions
12:53 AM 48.9 °F - 28.9 °F 46% 30.12 in 10.0 mi WSW 8.1 mph - N/A   Clear
1:53 AM 48.0 °F - 28.9 °F 48% 30.13 in 10.0 mi Calm Calm - N/A   Clear
2:53 AM 46.0 °F 41.4 °F 28.9 °F 51% 30.13 in 10.0 mi NW 9.2 mph - N/A   Clear
3:53 AM 42.1 °F 40.2 °F 30.0 °F 62% 30.14 in 10.0 mi West 3.5 mph - N/A   Clear
4:53 AM 44.1 °F 41.5 °F 28.9 °F 55% 30.14 in 10.0 mi West 4.6 mph - N/A   Clear
5:53 AM 42.1 °F 36.6 °F 30.0 °F 62% 30.15 in 10.0 mi West 9.2 mph - N/A   Clear
6:53 AM 41.0 °F 38.0 °F 30.0 °F 65% 30.18 in 10.0 mi North 4.6 mph - N/A   Clear
7:53 AM 46.9 °F - 32.0 °F 56% 30.21 in 10.0 mi North 4.6 mph - N/A   Clear
8:53 AM 54.0 °F - 33.1 °F 45% 30.21 in 10.0 mi Calm Calm - N/A   Clear
9:53 AM 61.0 °F - 30.9 °F 32% 30.21 in 10.0 mi NNE 4.6 mph - N/A   Clear
10:53 AM 66.0 °F - 28.9 °F 25% 30.19 in 10.0 mi Variable 3.5 mph - N/A   Clear
11:53 AM 70.0 °F - 28.0 °F 21% 30.17 in 10.0 mi Calm Calm - N/A   Clear
12:53 PM 72.0 °F - 23.0 °F 16% 30.14 in 10.0 mi Calm Calm - N/A   Clear
1:53 PM 75.0 °F - 23.0 °F 14% 30.11 in 10.0 mi North - - N/A   Clear
2:53 PM 75.9 °F - 21.0 °F 13% 30.09 in 10.0 mi SSE 10.4 mph - N/A   Clear
3:53 PM 77.0 °F - 18.0 °F 11% 30.07 in 10.0 mi South 8.1 mph - N/A   Clear
4:53 PM 75.9 °F - 17.1 °F 11% 30.07 in 10.0 mi SSE 5.8 mph - N/A   Clear
5:53 PM 73.9 °F - 21.0 °F 14% 30.08 in 10.0 mi SSE 3.5 mph - N/A   Clear
6:53 PM 68.0 °F - 23.0 °F 18% 30.10 in 10.0 mi SE 5.8 mph - N/A   Clear
7:53 PM 59.0 °F - 24.1 °F 26% 30.12 in 10.0 mi South 5.8 mph - N/A   Clear
8:53 PM 51.1 °F - 30.0 °F 44% 30.14 in 10.0 mi SSW 9.2 mph - N/A   Clear
9:53 PM 50.0 °F - 28.9 °F 44% 30.13 in 10.0 mi SW 8.1 mph - N/A   Clear
10:53 PM 50.0 °F - 28.9 °F 44% 30.13 in 10.0 mi WSW 9.2 mph - N/A   Clear
11:53 PM 52.0 °F - 28.9 °F 41% 30.12 in 10.0 mi WSW 10.4 mph - N/A   Clear